"startDT [UTC]","vpos","CH4 [ppm]","stdev(CH4) [ppm]","CO2 [ppm]","stdev(CO2) [ppm]","H2O [ppm]","stdev(H2O)","p_LGR [torr]","T_LGR [C]","mt1_LGR [us]","mt2_LGR [us]","T_ECpre [C]","T_EC1 [C]","T_EC2 [C]","p_inlet [hPa]","p_in [hPa]","p_out [hPa]","T_inlet [C]","RH_inlet [%]","dwpt_inlet [C]","T_vent [C]","RH_vent [%]","dwpt_vent [C]","flow_vent [l min-1]","flow_inlet [l min-1]","dwpt_sample [C]","T_room [C]"
2012-10-28 00:00:00,0.0,1.9137,0.0009,395.83,0.20,329.9,31.4,138.07,30.85,24.65,36.42,0.04,-272.74,-272.74,-46,568,-951,25.8,6.5,-13.5,25.7,6.6,-13.3,5.73,2.45,-21.9,30.2
2012-10-28 00:01:00,0.0,1.9137,0.0009,395.83,0.22,334.5,32.7,138.07,30.85,24.65,36.42,0.04,-272.75,-272.75,-46,568,-951,25.8,6.5,-13.5,25.7,6.6,-13.3,5.73,2.46,-21.9,30.2
2012-10-28 00:02:00,0.0,1.9124,0.0013,395.95,0.25,324.0,30.7,138.07,30.85,24.65,36.42,0.04,-272.75,-272.75,-45,568,-951,25.8,6.5,-13.5,25.7,6.7,-13.3,5.73,2.45,-21.8,30.2
2012-10-28 00:03:00,0.0,1.9110,0.0009,396.10,0.23,325.1,24.5,138.07,30.85,24.65,36.43,0.04,-272.75,-272.75,-45,568,-951,25.8,6.5,-13.5,25.7,6.7,-13.3,5.73,2.41,-21.9,30.2
2012-10-28 00:04:00,0.0,1.9114,0.0012,396.03,0.26,328.1,32.0,138.07,30.85,24.66,36.43,0.04,-272.74,-272.75,-46,568,-951,25.8,6.5,-13.5,25.7,6.7,-13.3,5.73,2.38,-21.8,30.2
2012-10-28 00:05:00,0.0,1.9129,0.0008,395.88,0.17,332.2,31.7,138.07,30.85,24.65,36.43,0.04,-272.75,-272.75,-46,568,-951,25.8,6.5,-13.4,25.7,6.7,-13.2,5.73,2.39,-21.9,30.2
2012-10-28 00:06:00,0.0,1.9127,0.0010,395.82,0.20,333.3,31.1,138.07,30.85,24.65,36.42,0.04,-272.74,-272.74,-46,568,-951,25.8,6.5,-13.4,25.7,6.7,-13.3,5.73,2.42,-21.8,30.2
2012-10-28 00:07:00,0.0,1.9113,0.0009,395.93,0.20,327.9,32.5,138.07,30.85,24.65,36.42,0.04,-272.74,-272.74,-45,568,-951,25.8,6.5,-13.5,25.7,6.7,-13.2,5.73,2.45,-21.9,30.2
2012-10-28 00:08:00,0.0,1.9104,0.0014,395.87,0.26,329.0,27.7,138.07,30.85,24.65,36.42,0.04,-272.75,-272.75,-45,568,-951,25.8,6.5,-13.5,25.7,6.7,-13.2,5.73,2.47,-21.9,30.2
2012-10-28 00:09:00,0.0,1.9063,0.0014,395.38,0.27,328.7,31.6,138.07,30.85,24.65,36.42,0.04,-272.74,-272.75,-45,568,-951,25.8,6.6,-13.4,25.7,6.7,-13.2,5.73,2.45,-21.8,30.1
2012-10-28 00:10:00,0.0,1.9028,0.0011,394.82,0.20,335.6,26.4,138.07,30.85,24.65,36.43,0.04,-272.74,-272.74,-46,568,-951,25.8,6.6,-13.4,25.7,6.7,-13.3,5.73,2.41,-21.8,30.2
2012-10-28 00:11:00,0.0,1.9034,0.0009,394.88,0.22,329.6,32.7,138.07,30.85,24.65,36.42,0.04,-272.75,-272.75,-46,568,-952,25.8,6.5,-13.5,25.7,6.7,-13.3,5.73,2.38,-21.8,30.1
2012-10-28 00:12:00,0.0,1.9033,0.0010,394.95,0.18,325.5,26.8,138.07,30.85,24.65,36.43,0.04,-272.75,-272.75,-45,568,-951,25.8,6.5,-13.4,25.7,6.7,-13.2,5.73,2.39,-21.8,30.1
2012-10-28 00:13:00,0.0,1.9023,0.0009,394.88,0.23,321.7,31.6,138.07,30.85,24.65,36.43,0.04,-272.74,-272.75,-45,568,-951,25.8,6.5,-13.5,25.7,6.7,-13.2,5.73,2.42,-21.8,30.2
2012-10-28 00:14:00,0.0,1.9021,0.0010,394.77,0.23,329.2,31.3,138.07,30.85,24.65,36.42,0.04,-272.75,-272.75,-46,568,-951,25.8,6.5,-13.5,25.7,6.7,-13.2,5.73,2.45,-21.8,30.1
2012-10-28 00:15:00,0.0,1.9022,0.0008,394.77,0.27,334.0,33.1,138.07,30.85,24.65,36.42,0.04,-272.75,-272.75,-46,568,-951,25.8,6.5,-13.5,25.8,6.7,-13.3,5.73,2.47,-21.8,30.1
2012-10-28 00:16:00,0.0,1.9024,0.0009,394.94,0.18,330.4,33.5,138.07,30.84,24.66,36.43,0.04,-272.74,-272.75,-46,568,-951,25.8,6.5,-13.5,25.7,6.7,-13.3,5.73,2.45,-21.8,30.1
2012-10-28 00:17:00,0.0,1.9025,0.0011,394.94,0.19,325.0,30.0,138.07,30.84,24.65,36.42,0.04,-272.74,-272.75,-45,568,-951,25.8,6.5,-13.5,25.7,6.7,-13.3,5.73,2.41,-21.8,30.1
2012-10-28 00:18:00,0.0,1.9021,0.0010,394.79,0.18,328.2,33.4,138.07,30.84,24.65,36.42,0.04,-272.75,-272.75,-45,568,-951,25.8,6.5,-13.5,25.8,6.7,-13.2,5.73,2.38,-21.8,30.1
2012-10-28 00:19:00,0.0,1.9020,0.0007,394.70,0.20,327.9,26.6,138.07,30.84,24.66,36.42,0.04,-272.74,-272.75,-46,568,-951,25.8,6.5,-13.5,25.7,6.7,-13.2,5.73,2.39,-21.8,30.1
2012-10-28 00:20:00,0.0,1.9022,0.0008,394.73,0.23,330.3,28.3,138.07,30.84,24.65,36.42,0.04,-272.74,-272.74,-46,568,-951,25.8,6.5,-13.5,25.7,6.7,-13.2,5.73,2.42,-21.8,30.1
2012-10-28 00:21:00,0.0,1.9021,0.0009,394.55,0.21,327.6,35.1,138.07,30.84,24.65,36.43,0.04,-272.75,-272.75,-46,568,-951,25.8,6.5,-13.5,25.8,6.7,-13.3,5.73,2.45,-21.8,30.2
2012-10-28 00:22:00,0.0,1.9018,0.0010,394.68,0.27,331.9,30.3,138.07,30.84,24.65,36.42,0.04,-272.75,-272.75,-45,568,-951,25.8,6.5,-13.5,25.7,6.7,-13.3,5.73,2.46,-21.8,30.1
2012-10-28 00:23:00,0.0,1.9010,0.0009,394.47,0.21,331.1,28.5,138.07,30.84,24.65,36.43,0.04,-272.74,-272.75,-45,568,-951,25.8,6.5,-13.5,25.7,6.6,-13.3,5.73,2.45,-21.8,30.1
2012-10-28 00:24:00,0.0,1.8997,0.0011,394.39,0.22,330.2,33.4,138.07,30.85,24.66,36.42,0.04,-272.74,-272.74,-46,568,-951,25.8,6.5,-13.5,25.8,6.6,-13.3,5.73,2.41,-21.8,30.1
2012-10-28 00:25:00,0.0,1.8999,0.0007,394.30,0.22,335.7,30.3,138.07,30.84,24.65,36.43,0.04,-272.75,-272.75,-46,568,-951,25.8,6.5,-13.6,25.8,6.6,-13.3,5.73,2.39,-21.8,30.1
2012-10-28 00:26:00,0.0,1.8995,0.0009,394.22,0.20,332.0,29.3,138.07,30.84,24.65,36.43,0.04,-272.74,-272.75,-46,568,-951,25.8,6.5,-13.5,25.7,6.6,-13.4,5.73,2.38,-21.8,30.1
2012-10-28 00:27:00,0.0,1.8997,0.0010,394.29,0.28,331.5,33.2,138.07,30.84,24.65,36.43,0.04,-272.74,-272.75,-45,568,-952,25.8,6.5,-13.6,25.7,6.6,-13.4,5.73,2.41,-21.9,30.1
2012-10-28 00:28:00,0.0,1.9001,0.0009,394.41,0.22,326.6,27.9,138.07,30.84,24.65,36.42,0.04,-272.75,-272.75,-45,568,-951,25.8,6.5,-13.6,25.7,6.6,-13.4,5.73,2.45,-21.8,30.1
2012-10-28 00:29:00,0.0,1.8999,0.0009,394.37,0.22,337.5,32.1,138.07,30.84,24.65,36.42,0.04,-272.75,-272.75,-45,568,-951,25.8,6.5,-13.6,25.7,6.6,-13.4,5.73,2.47,-21.8,30.1
2012-10-28 00:30:00,0.0,1.9001,0.0010,394.46,0.17,335.1,32.8,138.07,30.84,24.65,36.42,0.04,-272.74,-272.75,-46,568,-951,25.8,6.5,-13.6,25.7,6.6,-13.4,5.73,2.45,-21.8,30.1
2012-10-28 00:31:00,0.0,1.9005,0.0009,394.43,0.23,338.0,28.6,138.07,30.84,24.65,36.43,0.04,-272.75,-272.74,-46,568,-951,25.8,6.5,-13.6,25.7,6.6,-13.4,5.73,2.41,-21.8,30.1
2012-10-28 00:32:00,0.0,1.9004,0.0009,394.48,0.21,336.8,31.2,138.07,30.84,24.66,36.42,0.04,-272.75,-272.74,-45,568,-951,25.8,6.4,-13.6,25.7,6.6,-13.4,5.73,2.38,-21.9,30.1
2012-10-28 00:33:00,0.0,1.9008,0.0007,394.51,0.21,332.9,22.5,138.07,30.84,24.66,36.43,0.04,-272.74,-272.74,-45,568,-951,25.8,6.4,-13.7,25.7,6.6,-13.5,5.73,2.39,-21.8,30.2
2012-10-28 00:34:00,0.0,1.9015,0.0009,394.56,0.19,333.8,31.9,138.07,30.84,24.65,36.42,0.04,-272.75,-272.75,-45,568,-951,25.8,6.4,-13.7,25.7,6.6,-13.5,5.73,2.42,-21.8,30.2
2012-10-28 00:35:00,0.0,1.9019,0.0010,394.69,0.22,332.0,33.6,138.07,30.84,24.65,36.42,0.04,-272.75,-272.75,-46,568,-951,25.8,6.4,-13.6,25.7,6.6,-13.5,5.73,2.45,-21.8,30.2
2012-10-28 00:36:00,0.0,1.9022,0.0009,394.65,0.24,338.9,27.6,138.07,30.84,24.65,36.43,0.04,-272.74,-272.75,-46,568,-951,25.8,6.4,-13.7,25.8,6.6,-13.4,5.73,2.46,-21.8,30.2
2012-10-28 00:37:00,0.0,1.9022,0.0010,394.82,0.21,325.4,33.1,138.07,30.84,24.65,36.42,0.04,-272.74,-272.74,-45,568,-951,25.8,6.4,-13.7,25.8,6.6,-13.4,5.73,2.45,-21.8,30.2
2012-10-28 00:38:00,0.0,1.9025,0.0010,394.81,0.23,331.7,30.7,138.07,30.84,24.65,36.43,0.04,-272.75,-272.75,-45,568,-951,25.8,6.4,-13.7,25.7,6.6,-13.5,5.73,2.41,-21.8,30.2
2012-10-28 00:39:00,0.0,1.9025,0.0010,394.93,0.21,329.3,27.1,138.07,30.84,24.65,36.43,0.04,-272.75,-272.75,-45,568,-951,25.8,6.4,-13.7,25.7,6.6,-13.4,5.73,2.38,-21.8,30.2
2012-10-28 00:40:00,0.0,1.9030,0.0010,394.97,0.19,326.8,29.0,138.07,30.84,24.65,36.42,0.04,-272.74,-272.75,-46,568,-951,25.8,6.4,-13.7,25.7,6.6,-13.5,5.73,2.38,-21.8,30.1
2012-10-28 00:41:00,0.0,1.9030,0.0007,394.92,0.19,336.3,30.3,138.07,30.84,24.65,36.42,0.04,-272.75,-272.74,-46,568,-951,25.8,6.4,-13.7,25.7,6.5,-13.5,5.73,2.42,-21.9,30.1
2012-10-28 00:42:00,0.0,1.9027,0.0011,395.01,0.19,327.0,32.9,138.07,30.84,24.65,36.42,0.04,-272.75,-272.75,-45,568,-951,25.8,6.4,-13.7,25.8,6.5,-13.5,5.73,2.45,-21.8,30.1
2012-10-28 00:43:00,0.0,1.9033,0.0009,394.99,0.23,328.8,30.6,138.07,30.84,24.65,36.42,0.04,-272.75,-272.75,-45,568,-951,25.8,6.4,-13.7,25.7,6.5,-13.5,5.73,2.46,-21.8,30.1
2012-10-28 00:44:00,0.0,1.9031,0.0009,394.93,0.20,333.2,25.7,138.07,30.84,24.66,36.43,0.04,-272.75,-272.75,-46,568,-951,25.8,6.4,-13.8,25.7,6.5,-13.6,5.73,2.45,-21.8,30.2
2012-10-28 00:45:00,0.0,1.9034,0.0011,394.95,0.19,333.9,32.4,138.07,30.84,24.65,36.42,0.04,-272.75,-272.75,-46,568,-951,25.8,6.4,-13.8,25.7,6.5,-13.6,5.73,2.42,-21.8,30.1
2012-10-28 00:46:00,0.0,1.9036,0.0009,394.91,0.21,334.0,33.2,138.07,30.84,24.65,36.43,0.04,-272.75,-272.75,-46,568,-951,25.8,6.4,-13.8,25.7,6.5,-13.6,5.73,2.39,-21.8,30.2
2012-10-28 00:47:00,0.0,1.9037,0.0008,394.79,0.19,335.9,35.3,138.07,30.84,24.65,36.42,0.04,-272.74,-272.74,-45,568,-951,25.8,6.4,-13.8,25.8,6.5,-13.6,5.73,2.38,-21.8,30.2
2012-10-28 00:48:00,0.0,1.9041,0.0009,394.76,0.23,338.5,30.9,138.07,30.84,24.65,36.42,0.04,-272.75,-272.75,-45,568,-951,25.8,6.3,-13.8,25.7,6.5,-13.6,5.73,2.41,-21.8,30.2
2012-10-28 00:49:00,0.0,1.9035,0.0009,394.78,0.21,328.4,29.9,138.07,30.84,24.65,36.43,0.04,-272.74,-272.75,-45,568,-951,25.8,6.3,-13.9,25.7,6.5,-13.6,5.73,2.45,-21.8,30.2
2012-10-28 00:50:00,0.0,1.9042,0.0009,394.92,0.19,330.8,27.3,138.07,30.84,24.65,36.43,0.04,-272.74,-272.75,-46,568,-951,25.8,6.3,-13.9,25.7,6.5,-13.7,5.73,2.46,-21.8,30.2
2012-10-28 00:51:00,0.0,1.9039,0.0010,394.98,0.24,337.4,34.6,138.07,30.84,24.65,36.43,0.04,-272.75,-272.74,-46,568,-951,25.8,6.3,-13.8,25.7,6.4,-13.7,5.73,2.45,-21.8,30.2
2012-10-28 00:52:00,0.0,1.9035,0.0009,394.99,0.22,330.3,31.0,138.07,30.84,24.65,36.42,0.04,-272.74,-272.75,-45,568,-951,25.8,6.3,-13.9,25.7,6.5,-13.7,5.73,2.42,-21.8,30.2
2012-10-28 00:53:00,0.0,1.9035,0.0010,394.93,0.22,328.6,31.4,138.07,30.84,24.65,36.42,0.04,-272.75,-272.75,-45,568,-951,25.8,6.3,-13.9,25.7,6.5,-13.7,5.73,2.39,-21.8,30.2
2012-10-28 00:54:00,0.0,1.9040,0.0009,394.96,0.23,330.6,28.9,138.07,30.84,24.65,36.42,0.04,-272.75,-272.74,-45,568,-951,25.8,6.3,-13.9,25.8,6.4,-13.7,5.73,2.38,-21.8,30.2
2012-10-28 00:55:00,0.0,1.9035,0.0009,394.79,0.24,328.1,24.3,138.07,30.84,24.65,36.42,0.04,-272.75,-272.75,-46,568,-951,25.8,6.3,-13.9,25.8,6.4,-13.7,5.73,2.40,-21.8,30.2
2012-10-28 00:56:00,0.0,1.9036,0.0009,394.66,0.23,334.8,29.5,138.07,30.84,24.65,36.43,0.04,-272.75,-272.74,-46,568,-951,25.8,6.3,-13.9,25.8,6.4,-13.7,5.73,2.43,-21.8,30.2
2012-10-28 00:57:00,0.0,1.9037,0.0012,394.60,0.26,333.4,28.0,138.07,30.84,24.65,36.42,0.04,-272.74,-272.74,-45,568,-951,25.8,6.3,-13.9,25.7,6.4,-13.7,5.73,2.46,-21.8,30.2
2012-10-28 00:58:00,0.0,1.9030,0.0011,394.51,0.24,336.9,34.0,138.07,30.84,24.66,36.42,0.04,-272.75,-272.74,-45,568,-951,25.8,6.3,-13.9,25.8,6.4,-13.7,5.73,2.46,-21.8,30.1
2012-10-28 00:59:00,0.0,1.9035,0.0011,394.42,0.24,336.5,28.0,138.07,30.84,24.65,36.43,0.04,-272.75,-272.75,-45,568,-951,25.8,6.3,-13.9,25.7,6.4,-13.7,5.73,2.43,-21.8,30.2
2012-10-28 01:00:00,0.0,1.9031,0.0009,394.37,0.20,327.1,35.1,138.07,30.84,24.66,36.42,0.04,-272.75,-272.74,-46,568,-951,25.8,6.3,-14.0,25.7,6.4,-13.7,5.73,2.40,-21.8,30.2
2012-10-28 01:01:00,0.0,1.9033,0.0012,394.29,0.20,325.9,31.3,138.07,30.84,24.65,36.43,0.04,-272.75,-272.74,-46,568,-951,25.8,6.3,-14.0,25.8,6.4,-13.7,5.73,2.38,-21.8,30.2
2012-10-28 01:02:00,0.0,1.9030,0.0009,394.28,0.18,329.1,30.6,138.07,30.85,24.65,36.42,0.04,-272.75,-272.75,-45,568,-951,25.8,6.3,-14.0,25.7,6.4,-13.7,5.73,2.39,-21.8,30.2
2012-10-28 01:03:00,0.0,1.9028,0.0008,394.31,0.18,331.7,33.9,138.07,30.85,24.65,36.42,0.04,-272.74,-272.75,-45,568,-951,25.8,6.3,-14.0,25.8,6.4,-13.7,5.73,2.42,-21.8,30.2
2012-10-28 01:04:00,0.0,1.9027,0.0008,394.23,0.22,332.3,32.1,138.07,30.84,24.65,36.43,0.04,-272.74,-272.74,-45,568,-951,25.8,6.3,-13.9,25.8,6.4,-13.7,5.73,2.45,-21.8,30.1
2012-10-28 01:05:00,0.0,1.9027,0.0010,394.18,0.27,333.0,27.6,138.07,30.84,24.65,36.43,0.04,-272.75,-272.75,-46,568,-951,25.8,6.3,-13.9,25.8,6.4,-13.7,5.73,2.46,-21.8,30.1
2012-10-28 01:06:00,0.0,1.9029,0.0009,394.25,0.23,328.2,33.7,138.07,30.84,24.65,36.42,0.04,-272.75,-272.75,-46,568,-951,25.8,6.3,-13.9,25.7,6.4,-13.7,5.73,2.45,-21.8,30.2
2012-10-28 01:07:00,0.0,1.9029,0.0010,394.39,0.24,334.0,36.5,138.07,30.84,24.66,36.43,0.04,-272.74,-272.75,-45,568,-951,25.8,6.3,-13.9,25.7,6.4,-13.7,5.73,2.41,-21.8,30.2
2012-10-28 01:08:00,0.0,1.9035,0.0008,394.96,0.24,333.2,24.9,138.07,30.84,24.66,36.43,0.04,-272.75,-272.75,-45,568,-951,25.8,6.3,-13.9,25.7,6.4,-13.7,5.73,2.38,-21.8,30.2
2012-10-28 01:09:00,0.0,1.9039,0.0010,396.10,0.50,331.1,30.9,138.07,30.84,24.65,36.42,0.04,-272.75,-272.75,-45,568,-951,25.8,6.3,-13.9,25.7,6.4,-13.7,5.73,2.39,-21.8,30.2
2012-10-28 01:10:00,0.0,1.9044,0.0009,398.25,0.90,340.6,27.6,138.07,30.84,24.65,36.43,0.04,-272.74,-272.75,-46,568,-951,25.8,6.3,-13.9,25.7,6.5,-13.7,5.73,2.42,-21.8,30.2
2012-10-28 01:11:00,0.0,1.9047,0.0010,399.61,0.34,327.2,32.9,138.07,30.84,24.65,36.42,0.04,-272.74,-272.75,-46,568,-951,25.8,6.3,-13.9,25.7,6.5,-13.7,5.73,2.45,-21.8,30.2
2012-10-28 01:12:00,0.0,1.9048,0.0008,399.25,0.27,331.6,28.6,138.07,30.84,24.66,36.43,0.04,-272.74,-272.75,-45,568,-951,25.8,6.3,-13.9,25.7,6.5,-13.7,5.73,2.47,-21.8,30.1
2012-10-28 01:13:00,0.0,1.9054,0.0008,399.32,0.24,327.9,29.8,138.07,30.84,24.65,36.42,0.04,-272.74,-272.75,-45,568,-951,25.8,6.3,-13.9,25.7,6.4,-13.7,5.73,2.45,-21.8,30.2
2012-10-28 01:14:00,0.0,1.9052,0.0009,399.35,0.21,329.2,37.6,138.07,30.84,24.65,36.42,0.04,-272.75,-272.74,-45,568,-951,25.8,6.3,-13.9,25.7,6.5,-13.7,5.73,2.41,-21.8,30.2
2012-10-28 01:15:00,0.0,1.9054,0.0008,398.60,0.37,334.3,31.3,138.07,30.84,24.65,36.42,0.04,-272.75,-272.74,-46,568,-951,25.8,6.3,-13.8,25.7,6.5,-13.7,5.73,2.39,-21.8,30.2
2012-10-28 01:16:00,0.0,1.9056,0.0009,398.49,0.25,339.6,26.0,138.07,30.84,24.65,36.42,0.04,-272.74,-272.75,-46,568,-951,25.8,6.3,-13.9,25.7,6.5,-13.7,5.73,2.39,-21.8,30.2
2012-10-28 01:17:00,0.0,1.9050,0.0009,398.32,0.26,330.1,28.6,138.07,30.83,24.66,36.42,0.04,-272.74,-272.74,-46,568,-951,25.8,6.3,-13.9,25.7,6.5,-13.7,5.73,2.41,-21.8,30.2
2012-10-28 01:18:00,0.0,1.9050,0.0011,397.51,0.35,326.1,32.7,138.07,30.84,24.65,36.42,0.04,-272.74,-272.74,-45,568,-951,25.8,6.3,-13.9,25.7,6.5,-13.6,5.73,2.44,-21.9,30.2
2012-10-28 01:19:00,0.0,1.9050,0.0009,397.04,0.27,334.6,38.8,138.07,30.84,24.65,36.42,0.04,-272.75,-272.75,-45,568,-951,25.8,6.3,-13.9,25.7,6.5,-13.6,5.73,2.46,-21.8,30.2
2012-10-28 01:20:00,0.0,1.9050,0.0008,396.59,0.49,330.0,31.5,138.07,30.84,24.65,36.43,0.04,-272.74,-272.75,-45,568,-951,25.8,6.3,-13.9,25.7,6.5,-13.6,5.73,2.46,-21.8,30.2
2012-10-28 01:21:00,0.0,1.9052,0.0008,395.67,0.21,332.5,28.9,138.07,30.84,24.65,36.42,0.04,-272.75,-272.74,-46,568,-951,25.8,6.3,-13.9,25.7,6.5,-13.6,5.73,2.43,-21.8,30.2
2012-10-28 01:22:00,0.0,1.9052,0.0009,394.98,0.29,332.1,30.7,138.07,30.84,24.66,36.43,0.04,-272.75,-272.75,-46,568,-951,25.8,6.3,-13.9,25.7,6.5,-13.6,5.73,2.39,-21.8,30.2
2012-10-28 01:23:00,0.0,1.9056,0.0011,394.87,0.22,329.3,35.3,138.07,30.84,24.66,36.42,0.04,-272.75,-272.75,-45,568,-951,25.8,6.3,-13.9,25.7,6.5,-13.6,5.73,2.38,-21.8,30.2
2012-10-28 01:24:00,0.0,1.9058,0.0010,394.66,0.18,321.1,35.6,138.07,30.84,24.66,36.43,0.04,-272.74,-272.74,-45,568,-951,25.8,6.3,-13.9,25.7,6.5,-13.6,5.73,2.40,-21.8,30.2
2012-10-28 01:25:00,0.0,1.9058,0.0009,394.74,0.24,327.3,25.9,138.07,30.84,24.65,36.42,0.04,-272.75,-272.75,-45,568,-951,25.8,6.3,-13.9,25.7,6.5,-13.6,5.73,2.43,-21.8,30.2
2012-10-28 01:26:00,0.0,1.9059,0.0009,394.89,0.27,331.3,29.6,138.07,30.84,24.65,36.42,0.04,-272.75,-272.75,-46,568,-951,25.8,6.3,-13.9,25.7,6.5,-13.6,5.73,2.46,-21.8,30.2
2012-10-28 01:27:00,0.0,1.9058,0.0009,395.02,0.20,334.5,25.0,138.07,30.84,24.66,36.42,0.04,-272.75,-272.75,-46,568,-951,25.8,6.3,-13.9,25.8,6.5,-13.6,5.73,2.46,-21.8,30.2
2012-10-28 01:28:00,0.0,1.9051,0.0012,394.87,0.21,327.3,31.2,138.07,30.84,24.66,36.42,0.04,-272.75,-272.74,-45,568,-951,25.8,6.3,-13.9,25.7,6.5,-13.6,5.73,2.44,-21.8,30.2
2012-10-28 01:29:00,0.0,1.9042,0.0010,394.74,0.30,328.2,30.5,138.07,30.84,24.65,36.42,0.04,-272.75,-272.75,-45,568,-951,25.8,6.3,-13.8,25.8,6.5,-13.6,5.73,2.41,-21.8,30.2
2012-10-28 01:30:00,0.0,1.9051,0.0009,395.33,0.31,324.2,32.7,138.07,30.84,24.65,36.42,0.04,-272.75,-272.75,-45,568,-951,25.8,6.4,-13.8,25.7,6.5,-13.6,5.73,2.39,-21.8,30.2
2012-10-28 01:31:00,0.0,1.9041,0.0015,396.16,0.36,327.7,27.0,138.07,30.84,24.65,36.43,0.04,-272.75,-272.74,-46,568,-951,25.8,6.4,-13.8,25.7,6.5,-13.6,5.73,2.39,-21.8,30.2
2012-10-28 01:32:00,0.0,1.9045,0.0011,397.15,0.22,330.3,32.6,138.07,30.84,24.65,36.42,0.04,-272.75,-272.75,-46,568,-951,25.8,6.4,-13.8,25.7,6.5,-13.6,5.73,2.42,-21.8,30.2
2012-10-28 01:33:00,0.0,1.9053,0.0009,397.61,0.20,324.5,35.5,138.07,30.84,24.65,36.42,0.04,-272.75,-272.75,-45,568,-951,25.8,6.4,-13.8,25.7,6.5,-13.6,5.73,2.45,-21.9,30.2
2012-10-28 01:34:00,0.0,1.9053,0.0008,397.99,0.25,325.4,31.0,138.07,30.84,24.65,36.42,0.04,-272.74,-272.75,-45,568,-951,25.8,6.4,-13.8,25.7,6.5,-13.6,5.73,2.46,-21.8,30.2
2012-10-28 01:35:00,0.0,1.9058,0.0008,397.97,0.21,335.2,34.3,138.07,30.84,24.65,36.43,0.04,-272.75,-272.75,-45,568,-951,25.8,6.4,-13.7,25.7,6.5,-13.6,5.73,2.45,-21.8,30.2
2012-10-28 01:36:00,0.0,1.9061,0.0008,397.61,0.27,325.8,30.2,138.07,30.84,24.65,36.43,0.04,-272.75,-272.75,-46,568,-951,25.8,6.4,-13.8,25.7,6.5,-13.6,5.73,2.42,-21.8,30.2
2012-10-28 01:37:00,0.0,1.9056,0.0007,397.08,0.27,330.0,28.4,138.07,30.84,24.65,36.43,0.04,-272.74,-272.75,-46,568,-951,25.8,6.4,-13.7,25.7,6.5,-13.6,5.73,2.39,-21.8,30.2
2012-10-28 01:38:00,0.0,1.9057,0.0011,397.05,0.19,325.7,32.8,138.07,30.84,24.65,36.42,0.04,-272.74,-272.74,-45,568,-951,25.8,6.4,-13.8,25.8,6.5,-13.5,5.73,2.38,-21.8,30.2
2012-10-28 01:39:00,0.0,1.9050,0.0012,396.16,0.66,332.6,30.7,138.07,30.84,24.65,36.42,0.04,-272.75,-272.75,-45,568,-951,25.8,6.4,-13.8,25.8,6.5,-13.5,5.73,2.40,-21.8,30.2
2012-10-28 01:40:00,0.0,1.9046,0.0011,395.63,0.27,332.2,27.3,138.07,30.84,24.66,36.43,0.04,-272.75,-272.75,-45,568,-951,25.8,6.4,-13.8,25.8,6.5,-13.5,5.73,2.43,-21.8,30.2
2012-10-28 01:41:00,0.0,1.9051,0.0008,395.98,0.33,324.4,32.3,138.07,30.84,24.65,36.43,0.04,-272.74,-272.74,-46,568,-951,25.8,6.4,-13.7,25.8,6.5,-13.5,5.73,2.45,-21.8,30.2
2012-10-28 01:42:00,0.0,1.9058,0.0008,397.26,0.40,330.5,32.8,138.07,30.84,24.66,36.43,0.04,-272.75,-272.75,-46,568,-951,25.8,6.4,-13.7,25.8,6.5,-13.5,5.73,2.46,-21.8,30.2
2012-10-28 01:43:00,0.0,1.9059,0.0009,397.52,0.74,331.4,30.3,138.07,30.84,24.65,36.42,0.04,-272.75,-272.75,-46,568,-951,25.8,6.4,-13.7,25.8,6.5,-13.5,5.73,2.44,-21.8,30.2
2012-10-28 01:44:00,0.0,1.9050,0.0011,397.18,0.38,326.8,33.0,138.07,30.84,24.65,36.42,0.04,-272.74,-272.75,-45,568,-951,25.8,6.4,-13.7,25.7,6.6,-13.5,5.73,2.41,-21.8,30.2
2012-10-28 01:45:00,0.0,1.9049,0.0009,396.67,0.24,324.9,30.9,138.07,30.84,24.65,36.43,0.04,-272.75,-272.75,-45,568,-951,25.8,6.4,-13.7,25.7,6.6,-13.5,5.73,2.38,-21.8,30.2
2012-10-28 01:46:00,0.0,1.9049,0.0008,396.54,0.26,331.0,27.5,138.07,30.84,24.65,36.42,0.04,-272.74,-272.75,-45,568,-951,25.8,6.4,-13.7,25.7,6.6,-13.4,5.73,2.39,-21.9,30.2
2012-10-28 01:47:00,0.0,1.9057,0.0008,395.99,0.29,325.0,29.1,138.07,30.84,24.65,36.42,0.04,-272.75,-272.75,-46,568,-951,25.8,6.4,-13.7,25.7,6.6,-13.5,5.73,2.41,-21.8,30.2
2012-10-28 01:48:00,0.0,1.9075,0.0011,396.11,0.33,327.4,29.0,138.07,30.84,24.65,36.43,0.04,-272.75,-272.75,-46,568,-951,25.8,6.4,-13.7,25.8,6.6,-13.4,5.73,2.44,-21.9,30.2
2012-10-28 01:49:00,0.0,1.9068,0.0012,395.27,0.39,324.8,37.6,138.07,30.84,24.65,36.42,0.04,-272.75,-272.75,-45,568,-951,25.8,6.4,-13.7,25.7,6.6,-13.4,5.73,2.46,-21.8,30.2
2012-10-28 01:50:00,0.0,1.9043,0.0012,394.65,0.22,333.9,27.0,138.07,30.84,24.65,36.42,0.04,-272.75,-272.75,-45,568,-951,25.8,6.4,-13.7,25.7,6.6,-13.5,5.73,2.46,-21.9,30.2
2012-10-28 01:51:00,0.0,1.9055,0.0011,394.77,0.22,330.2,34.1,138.07,30.84,24.65,36.43,0.04,-272.74,-272.75,-45,568,-951,25.8,6.4,-13.7,25.7,6.6,-13.5,5.73,2.42,-21.9,30.1
2012-10-28 01:52:00,0.0,1.9066,0.0010,395.24,0.29,329.0,25.5,138.07,30.84,24.65,36.42,0.04,-272.75,-272.75,-46,568,-951,25.8,6.4,-13.7,25.7,6.6,-13.4,5.73,2.39,-21.9,30.1
2012-10-28 01:53:00,0.0,1.9064,0.0009,395.98,0.31,329.1,30.4,138.07,30.84,24.65,36.42,0.04,-272.75,-272.75,-46,568,-951,25.8,6.4,-13.7,25.7,6.6,-13.5,5.73,2.38,-21.9,30.1
2012-10-28 01:54:00,0.0,1.9055,0.0010,396.39,0.26,327.9,31.6,138.07,30.84,24.65,36.42,0.04,-272.74,-272.75,-45,568,-951,25.8,6.4,-13.6,25.7,6.6,-13.5,5.73,2.39,-21.9,30.2
2012-10-28 01:55:00,0.0,1.9070,0.0013,397.06,0.31,324.6,34.4,138.07,30.84,24.65,36.42,0.04,-272.74,-272.75,-45,568,-951,25.8,6.4,-13.6,25.7,6.6,-13.5,5.73,2.43,-21.9,30.2
2012-10-28 01:56:00,0.0,1.9063,0.0008,396.73,0.28,327.1,32.2,138.07,30.84,24.66,36.43,0.04,-272.75,-272.75,-45,568,-951,25.8,6.4,-13.7,25.7,6.6,-13.4,5.73,2.46,-21.9,30.2
2012-10-28 01:57:00,0.0,1.9063,0.0009,397.03,0.41,322.0,35.2,138.07,30.84,24.66,36.43,0.04,-272.75,-272.75,-45,568,-951,25.8,6.4,-13.6,25.7,6.6,-13.4,5.73,2.46,-21.8,30.2
2012-10-28 01:58:00,0.0,1.9047,0.0009,395.97,0.26,336.1,25.9,138.07,30.84,24.66,36.43,0.04,-272.74,-272.74,-46,568,-951,25.8,6.4,-13.6,25.7,6.6,-13.4,5.73,2.44,-21.8,30.2
2012-10-28 01:59:00,0.0,1.9051,0.0011,395.86,0.43,327.2,26.7,138.07,30.84,24.65,36.42,0.04,-272.75,-272.75,-45,568,-951,25.8,6.4,-13.7,25.7,6.6,-13.4,5.73,2.41,-21.8,30.2
2012-10-28 02:00:00,0.0,1.9071,0.0010,396.36,0.28,326.2,30.2,138.07,30.84,24.65,36.42,0.04,-272.75,-272.75,-45,568,-952,25.8,6.4,-13.7,25.7,6.6,-13.4,5.73,2.39,-21.8,30.2
2012-10-28 02:01:00,0.0,1.9083,0.0012,395.53,0.36,326.9,29.3,138.07,30.84,24.65,36.43,0.04,-272.74,-272.75,-45,568,-951,25.8,6.4,-13.7,25.7,6.6,-13.5,5.73,2.39,-21.8,30.2
2012-10-28 02:02:00,0.0,1.9093,0.0010,394.92,0.24,325.7,28.2,138.07,30.84,24.65,36.43,0.04,-272.75,-272.75,-45,568,-951,25.8,6.4,-13.7,25.7,6.5,-13.5,5.73,2.40,-21.8,30.2
2012-10-28 02:03:00,0.0,1.9093,0.0012,395.01,0.22,326.6,30.6,138.07,30.84,24.65,36.43,0.04,-272.75,-272.75,-46,568,-951,25.8,6.4,-13.8,25.7,6.5,-13.6,5.73,2.45,-21.9,30.2
2012-10-28 02:04:00,0.0,1.9105,0.0009,394.96,0.25,327.6,31.4,138.07,30.84,24.65,36.43,0.04,-272.74,-272.75,-46,568,-951,25.8,6.4,-13.8,25.7,6.5,-13.6,5.73,2.47,-21.9,30.1
2012-10-28 02:05:00,0.0,1.9107,0.0010,395.08,0.22,325.6,29.6,138.07,30.84,24.65,36.42,0.04,-272.75,-272.74,-45,568,-951,25.8,6.3,-13.9,25.7,6.5,-13.6,5.73,2.45,-21.8,30.2
2012-10-28 02:06:00,0.0,1.9108,0.0007,395.20,0.25,332.5,29.0,138.07,30.84,24.66,36.42,0.04,-272.75,-272.75,-45,568,-952,25.8,6.3,-13.8,25.8,6.5,-13.6,5.73,2.42,-21.9,30.2
2012-10-28 02:07:00,0.0,1.9113,0.0009,395.20,0.22,332.9,29.9,138.07,30.84,24.65,36.43,0.04,-272.75,-272.74,-45,568,-952,25.8,6.3,-13.9,25.7,6.4,-13.7,5.73,2.39,-21.8,30.2
2012-10-28 02:08:00,0.0,1.9103,0.0011,395.26,0.22,330.0,31.5,138.07,30.84,24.65,36.42,0.04,-272.74,-272.74,-46,568,-951,25.8,6.3,-13.9,25.7,6.4,-13.7,5.73,2.38,-21.8,30.2
2012-10-28 02:09:00,0.0,1.9105,0.0009,395.18,0.20,332.8,29.2,138.07,30.84,24.65,36.43,0.04,-272.75,-272.75,-46,568,-951,25.8,6.3,-13.9,25.7,6.4,-13.7,5.73,2.41,-21.8,30.2
2012-10-28 02:10:00,0.0,1.9103,0.0009,395.39,0.20,332.0,27.4,138.07,30.84,24.65,36.42,0.04,-272.74,-272.75,-45,568,-951,25.8,6.3,-13.9,25.7,6.4,-13.7,5.73,2.44,-21.8,30.2
2012-10-28 02:11:00,0.0,1.9102,0.0012,395.54,0.23,334.0,30.5,138.07,30.84,24.65,36.42,0.04,-272.75,-272.75,-45,568,-951,25.8,6.3,-13.9,25.8,6.4,-13.7,5.73,2.46,-21.9,30.2
2012-10-28 02:12:00,0.0,1.9104,0.0008,395.21,0.25,330.6,33.9,138.07,30.84,24.65,36.43,0.04,-272.75,-272.75,-45,568,-951,25.8,6.3,-13.9,25.7,6.4,-13.7,5.73,2.45,-21.9,30.2
2012-10-28 02:13:00,0.0,1.9107,0.0010,395.08,0.21,323.4,31.5,138.07,30.85,24.65,36.43,0.04,-272.74,-272.75,-46,568,-951,25.8,6.3,-14.0,25.8,6.4,-13.7,5.73,2.42,-21.9,30.2
2012-10-28 02:14:00,0.0,1.9115,0.0009,395.03,0.23,326.3,33.9,138.07,30.85,24.65,36.42,0.04,-272.75,-272.75,-46,568,-951,25.8,6.3,-14.0,25.8,6.4,-13.8,5.73,2.39,-21.9,30.2
2012-10-28 02:15:00,0.0,1.9113,0.0009,395.07,0.21,318.5,29.8,138.07,30.85,24.65,36.42,0.04,-272.74,-272.75,-45,568,-951,25.8,6.2,-14.0,25.8,6.4,-13.8,5.73,2.38,-21.8,30.2
2012-10-28 02:16:00,0.0,1.9118,0.0008,395.03,0.23,321.4,30.1,138.07,30.85,24.65,36.43,0.04,-272.75,-272.75,-45,568,-951,25.8,6.2,-14.0,25.8,6.4,-13.8,5.73,2.40,-21.8,30.2